Time,TemperatureF,DewpointF,PressureIn,WindDirection,WindDirectionDegrees,WindSpeedMPH,WindSpeedGustMPH,Humidity,HourlyPrecipIn,Conditions,Clouds,dailyrainin,SoftwareType,DateUTC
2013-01-07 00:00:00,24.2,23.2,29.99,NE,41,0.0,0.0,96,0.00,,,0.00,Wunderground v.1.15,2013-01-07 05:00:00,
2013-01-07 00:02:00,24.3,23.3,29.99,NE,41,0.0,0.0,96,0.00,,,0.00,Wunderground v.1.15,2013-01-07 05:02:00,
2013-01-07 00:03:00,24.2,23.2,29.99,NE,41,0.0,0.0,96,0.00,,,0.00,Wunderground v.1.15,2013-01-07 05:03:00,
2013-01-07 00:04:00,24.3,23.3,29.99,NE,41,0.0,0.0,96,0.00,,,0.00,Wunderground v.1.15,2013-01-07 05:04:00,
2013-01-07 00:09:00,24.5,23.5,29.99,NE,54,0.0,0.0,96,0.00,,,0.00,Wunderground v.1.15,2013-01-07 05:09:00,
2013-01-07 00:15:00,24.6,23.6,29.99,NE,54,0.0,0.0,96,0.00,,,0.00,Wunderground v.1.15,2013-01-07 05:15:00,
2013-01-07 00:20:00,24.6,23.6,29.99,NE,55,0.0,0.0,96,0.00,,,0.00,Wunderground v.1.15,2013-01-07 05:20:00,
2013-01-07 00:26:00,24.7,23.7,29.99,NE,37,0.0,0.0,96,0.00,,,0.00,Wunderground v.1.15,2013-01-07 05:26:00,
2013-01-07 00:32:00,25.5,24.5,30.00,NE,35,0.0,0.0,96,0.00,,,0.00,Wunderground v.1.15,2013-01-07 05:32:00,
2013-01-07 00:38:00,25.6,24.6,30.00,NNE,33,0.0,1.0,96,0.00,,,0.00,Wunderground v.1.15,2013-01-07 05:38:00,
2013-01-07 00:44:00,25.7,24.7,30.00,NNE,32,1.0,1.0,96,0.00,,,0.00,Wunderground v.1.15,2013-01-07 05:44:00,
2013-01-07 00:49:00,25.8,24.8,30.00,NNE,26,1.0,1.0,96,0.00,,,0.00,Wunderground v.1.15,2013-01-07 05:49:00,
2013-01-07 00:55:00,25.8,24.8,30.00,NE,46,1.0,1.0,96,0.00,,,0.00,Wunderground v.1.15,2013-01-07 05:55:00,
2013-01-07 01:00:00,25.9,24.9,30.00,NE,51,1.0,1.0,96,0.00,,,0.00,Wunderground v.1.15,2013-01-07 06:00:00,
2013-01-07 01:06:00,25.9,24.9,30.01,North,356,1.0,1.0,96,0.00,,,0.00,Wunderground v.1.15,2013-01-07 06:06:00,
2013-01-07 01:12:00,26.2,25.2,30.01,NE,51,1.0,1.0,96,0.00,,,0.00,Wunderground v.1.15,2013-01-07 06:12:00,
2013-01-07 01:18:00,26.4,25.4,30.01,ENE,60,1.0,2.0,96,0.00,,,0.00,Wunderground v.1.15,2013-01-07 06:18:00,
2013-01-07 01:23:00,26.2,25.2,30.01,NE,51,1.0,1.0,96,0.00,,,0.00,Wunderground v.1.15,2013-01-07 06:23:00,
2013-01-07 01:28:00,26.0,25.0,30.01,ENE,71,1.0,1.0,96,0.00,,,0.00,Wunderground v.1.15,2013-01-07 06:28:00,
2013-01-07 01:34:00,26.2,25.2,30.02,NE,46,1.0,2.0,96,0.00,,,0.00,Wunderground v.1.15,2013-01-07 06:34:00,
2013-01-07 01:40:00,26.9,25.9,30.02,NE,37,1.0,1.0,96,0.00,,,0.00,Wunderground v.1.15,2013-01-07 06:40:00,
2013-01-07 01:45:00,27.0,26.0,30.02,NNE,15,1.0,1.0,96,0.00,,,0.00,Wunderground v.1.15,2013-01-07 06:45:00,
2013-01-07 01:50:00,27.3,26.3,30.02,North,1,1.0,1.0,96,0.00,,,0.00,Wunderground v.1.15,2013-01-07 06:50:00,
2013-01-07 01:55:00,27.3,26.3,30.02,NE,56,1.0,2.0,96,0.00,,,0.00,Wunderground v.1.15,2013-01-07 06:55:00,
2013-01-07 02:01:00,27.9,26.9,30.02,NE,56,1.0,2.0,96,0.00,,,0.00,Wunderground v.1.15,2013-01-07 07:01:00,
2013-01-07 02:06:00,28.1,27.1,30.02,NE,47,1.0,2.0,96,0.00,,,0.00,Wunderground v.1.15,2013-01-07 07:06:00,
2013-01-07 02:11:00,28.5,27.5,30.02,NE,41,1.0,1.0,96,0.00,,,0.00,Wunderground v.1.15,2013-01-07 07:11:00,
2013-01-07 02:17:00,28.1,27.1,30.03,North,359,1.0,1.0,96,0.00,,,0.00,Wunderground v.1.15,2013-01-07 07:17:00,
2013-01-07 02:22:00,27.4,26.2,30.03,NE,39,1.0,1.0,95,0.00,,,0.00,Wunderground v.1.15,2013-01-07 07:22:00,
2013-01-07 02:28:00,27.1,25.9,30.03,North,360,1.0,1.0,95,0.00,,,0.00,Wunderground v.1.15,2013-01-07 07:28:00,
2013-01-07 02:34:00,27.4,26.2,30.03,NW,312,0.0,2.0,95,0.00,,,0.00,Wunderground v.1.15,2013-01-07 07:34:00,
2013-01-07 02:39:00,27.3,26.1,30.03,ENE,60,1.0,2.0,95,0.00,,,0.00,Wunderground v.1.15,2013-01-07 07:39:00,
2013-01-07 02:44:00,26.9,25.7,30.04,NNE,20,1.0,1.0,95,0.00,,,0.00,Wunderground v.1.15,2013-01-07 07:44:00,
2013-01-07 02:50:00,26.7,25.5,30.03,NNE,20,1.0,1.0,95,0.00,,,0.00,Wunderground v.1.15,2013-01-07 07:50:00,
2013-01-07 02:55:00,26.5,25.3,30.03,ENE,63,1.0,2.0,95,0.00,,,0.00,Wunderground v.1.15,2013-01-07 07:55:00,
2013-01-07 03:00:00,25.8,24.3,30.04,ENE,63,0.0,1.0,94,0.00,,,0.00,Wunderground v.1.15,2013-01-07 08:00:00,
2013-01-07 03:06:00,26.1,24.9,30.04,ENE,58,1.0,1.0,95,0.00,,,0.00,Wunderground v.1.15,2013-01-07 08:06:00,
2013-01-07 03:11:00,25.9,24.7,30.04,NE,49,1.0,1.0,95,0.00,,,0.00,Wunderground v.1.15,2013-01-07 08:11:00,
2013-01-07 03:17:00,25.5,24.3,30.04,NE,49,1.0,1.0,95,0.00,,,0.00,Wunderground v.1.15,2013-01-07 08:17:00,
2013-01-07 03:22:00,25.5,24.3,30.04,NE,46,1.0,1.0,95,0.00,,,0.00,Wunderground v.1.15,2013-01-07 08:22:00,
2013-01-07 03:27:00,25.3,24.1,30.04,NE,47,1.0,1.0,95,0.00,,,0.00,Wunderground v.1.15,2013-01-07 08:27:00,
2013-01-07 03:33:00,24.9,23.7,30.04,NE,47,0.0,1.0,95,0.00,,,0.00,Wunderground v.1.15,2013-01-07 08:33:00,
2013-01-07 03:38:00,24.8,23.6,30.04,NW,304,0.0,1.0,95,0.00,,,0.00,Wunderground v.1.15,2013-01-07 08:38:00,
2013-01-07 03:43:00,24.8,23.6,30.05,ENE,78,1.0,1.0,95,0.00,,,0.00,Wunderground v.1.15,2013-01-07 08:43:00,
2013-01-07 03:48:00,24.6,23.4,30.04,ENE,58,1.0,1.0,95,0.00,,,0.00,Wunderground v.1.15,2013-01-07 08:48:00,
2013-01-07 03:54:00,24.5,23.3,30.05,ENE,58,0.0,1.0,95,0.00,,,0.00,Wunderground v.1.15,2013-01-07 08:54:00,
2013-01-07 03:59:00,24.7,23.5,30.05,ENE,64,0.0,1.0,95,0.00,,,0.00,Wunderground v.1.15,2013-01-07 08:59:00,
2013-01-07 04:04:00,24.4,23.2,30.04,ENE,64,0.0,0.0,95,0.00,,,0.00,Wunderground v.1.15,2013-01-07 09:04:00,
2013-01-07 04:09:00,24.2,23.0,30.05,ENE,63,0.0,0.0,95,0.00,,,0.00,Wunderground v.1.15,2013-01-07 09:09:00,
2013-01-07 04:14:00,24.2,23.0,30.05,ENE,62,0.0,0.0,95,0.00,,,0.00,Wunderground v.1.15,2013-01-07 09:14:00,
2013-01-07 04:20:00,24.1,22.9,30.05,ENE,62,0.0,0.0,95,0.00,,,0.00,Wunderground v.1.15,2013-01-07 09:20:00,
2013-01-07 04:26:00,23.9,22.7,30.05,ENE,63,0.0,0.0,95,0.00,,,0.00,Wunderground v.1.15,2013-01-07 09:26:00,
2013-01-07 04:31:00,23.8,22.6,30.05,NNE,32,0.0,1.0,95,0.00,,,0.00,Wunderground v.1.15,2013-01-07 09:31:00,
2013-01-07 04:37:00,24.0,23.0,30.05,NNE,29,0.0,1.0,96,0.00,,,0.00,Wunderground v.1.15,2013-01-07 09:37:00,
2013-01-07 04:42:00,23.8,22.6,30.06,NNE,29,0.0,0.0,95,0.00,,,0.00,Wunderground v.1.15,2013-01-07 09:42:00,
2013-01-07 04:48:00,23.9,22.9,30.06,NNE,28,0.0,2.0,96,0.00,,,0.00,Wunderground v.1.15,2013-01-07 09:48:00,
2013-01-07 04:53:00,24.0,23.0,30.07,NNE,19,1.0,2.0,96,0.00,,,0.00,Wunderground v.1.15,2013-01-07 09:53:00,
2013-01-07 04:59:00,24.1,23.1,30.07,NNE,19,1.0,2.0,96,0.00,,,0.00,Wunderground v.1.15,2013-01-07 09:59:00,
2013-01-07 05:05:00,23.8,22.6,30.07,NE,41,1.0,1.0,95,0.00,,,0.00,Wunderground v.1.15,2013-01-07 10:05:00,
2013-01-07 05:11:00,23.9,22.9,30.07,NE,41,0.0,1.0,96,0.00,,,0.00,Wunderground v.1.15,2013-01-07 10:11:00,
2013-01-07 05:16:00,24.0,23.0,30.08,NE,41,0.0,1.0,96,0.00,,,0.00,Wunderground v.1.15,2013-01-07 10:16:00,
2013-01-07 05:21:00,23.9,22.9,30.08,NE,41,1.0,1.0,96,0.00,,,0.00,Wunderground v.1.15,2013-01-07 10:21:00,
2013-01-07 05:27:00,23.7,22.5,30.08,NE,41,0.0,1.0,95,0.00,,,0.00,Wunderground v.1.15,2013-01-07 10:27:00,
2013-01-07 05:33:00,23.5,22.3,30.09,NE,41,0.0,0.0,95,0.00,,,0.00,Wunderground v.1.15,2013-01-07 10:33:00,
2013-01-07 05:39:00,23.4,22.2,30.09,NE,41,0.0,0.0,95,0.00,,,0.00,Wunderground v.1.15,2013-01-07 10:39:00,
2013-01-07 05:45:00,23.4,22.4,30.09,NE,41,0.0,0.0,96,0.00,,,0.00,Wunderground v.1.15,2013-01-07 10:45:00,
2013-01-07 05:50:00,23.1,21.9,30.09,NE,41,0.0,0.0,95,0.00,,,0.00,Wunderground v.1.15,2013-01-07 10:50:00,
2013-01-07 05:56:00,23.1,22.1,30.09,NE,41,0.0,1.0,96,0.00,,,0.00,Wunderground v.1.15,2013-01-07 10:56:00,
2013-01-07 06:01:00,23.1,22.1,30.10,NE,41,0.0,0.0,96,0.00,,,0.00,Wunderground v.1.15,2013-01-07 11:01:00,
2013-01-07 06:07:00,22.8,21.6,30.10,NE,41,0.0,0.0,95,0.00,,,0.00,Wunderground v.1.15,2013-01-07 11:07:00,
2013-01-07 06:12:00,22.8,21.8,30.10,NE,41,0.0,0.0,96,0.00,,,0.00,Wunderground v.1.15,2013-01-07 11:12:00,
2013-01-07 06:17:00,22.7,21.7,30.11,NE,41,0.0,0.0,96,0.00,,,0.00,Wunderground v.1.15,2013-01-07 11:17:00,
2013-01-07 06:22:00,22.8,21.8,30.11,NE,41,0.0,0.0,96,0.00,,,0.00,Wunderground v.1.15,2013-01-07 11:22:00,
2013-01-07 06:27:00,22.8,21.8,30.12,NE,41,0.0,0.0,96,0.00,,,0.00,Wunderground v.1.15,2013-01-07 11:27:00,
2013-01-07 06:33:00,22.8,21.8,30.12,NE,41,0.0,0.0,96,0.00,,,0.00,Wunderground v.1.15,2013-01-07 11:33:00,
2013-01-07 06:38:00,22.9,21.9,30.13,NE,41,0.0,0.0,96,0.00,,,0.00,Wunderground v.1.15,2013-01-07 11:38:00,
2013-01-07 06:43:00,22.9,21.9,30.13,NE,41,0.0,0.0,96,0.00,,,0.00,Wunderground v.1.15,2013-01-07 11:43:00,
2013-01-07 06:49:00,22.9,21.9,30.13,NE,41,0.0,0.0,96,0.00,,,0.00,Wunderground v.1.15,2013-01-07 11:49:00,
2013-01-07 06:54:00,22.9,21.9,30.13,NE,41,0.0,1.0,96,0.00,,,0.00,Wunderground v.1.15,2013-01-07 11:54:00,
2013-01-07 07:00:00,23.0,22.0,30.14,ENE,67,0.0,0.0,96,0.00,,,0.00,Wunderground v.1.15,2013-01-07 12:00:00,
2013-01-07 07:05:00,23.1,22.1,30.14,NNE,25,1.0,1.0,96,0.00,,,0.00,Wunderground v.1.15,2013-01-07 12:05:00,
2013-01-07 07:10:00,23.7,22.7,30.14,ENE,70,1.0,1.0,96,0.00,,,0.00,Wunderground v.1.15,2013-01-07 12:10:00,
2013-01-07 07:16:00,23.5,22.5,30.14,ENE,71,1.0,1.0,96,0.00,,,0.00,Wunderground v.1.15,2013-01-07 12:16:00,
2013-01-07 07:22:00,23.8,22.8,30.15,NE,43,0.0,0.0,96,0.00,,,0.00,Wunderground v.1.15,2013-01-07 12:22:00,
2013-01-07 07:28:00,24.0,23.0,30.15,NE,54,0.0,0.0,96,0.00,,,0.00,Wunderground v.1.15,2013-01-07 12:28:00,
2013-01-07 07:33:00,24.3,23.3,30.15,North,359,0.0,0.0,96,0.00,,,0.00,Wunderground v.1.15,2013-01-07 12:33:00,
2013-01-07 07:39:00,23.9,22.7,30.16,NE,36,0.0,0.0,95,0.00,,,0.00,Wunderground v.1.15,2013-01-07 12:39:00,
2013-01-07 07:44:00,24.2,23.2,30.16,NNW,335,0.0,0.0,96,0.00,,,0.00,Wunderground v.1.15,2013-01-07 12:44:00,
2013-01-07 07:50:00,24.3,23.3,30.17,North,350,0.0,0.0,96,0.00,,,0.00,Wunderground v.1.15,2013-01-07 12:50:00,
2013-01-07 07:55:00,24.4,23.4,30.17,NNW,339,0.0,0.0,96,0.00,,,0.00,Wunderground v.1.15,2013-01-07 12:55:00,
2013-01-07 08:00:00,24.5,23.5,30.17,NNW,339,0.0,0.0,96,0.00,,,0.00,Wunderground v.1.15,2013-01-07 13:00:00,
2013-01-07 08:05:00,25.0,24.0,30.17,North,8,0.0,0.0,96,0.00,,,0.00,Wunderground v.1.15,2013-01-07 13:05:00,
2013-01-07 08:10:00,25.2,24.2,30.17,North,8,0.0,0.0,96,0.00,,,0.00,Wunderground v.1.15,2013-01-07 13:10:00,
2013-01-07 08:15:00,25.8,24.8,30.18,North,356,0.0,0.0,96,0.00,,,0.00,Wunderground v.1.15,2013-01-07 13:15:00,
2013-01-07 08:20:00,26.5,25.5,30.18,North,357,0.0,0.0,96,0.00,,,0.00,Wunderground v.1.15,2013-01-07 13:20:00,
2013-01-07 08:25:00,27.1,26.1,30.18,NE,39,0.0,0.0,96,0.00,,,0.00,Wunderground v.1.15,2013-01-07 13:25:00,
2013-01-07 08:31:00,27.8,26.8,30.18,WNW,301,0.0,0.0,96,0.00,,,0.00,Wunderground v.1.15,2013-01-07 13:31:00,
2013-01-07 08:36:00,28.5,27.5,30.19,WNW,300,0.0,0.0,96,0.00,,,0.00,Wunderground v.1.15,2013-01-07 13:36:00,
2013-01-07 08:42:00,28.8,27.5,30.19,North,356,0.0,0.0,95,0.00,,,0.00,Wunderground v.1.15,2013-01-07 13:42:00,
2013-01-07 08:47:00,29.6,28.3,30.20,ENE,57,0.0,0.0,95,0.00,,,0.00,Wunderground v.1.15,2013-01-07 13:47:00,
2013-01-07 08:53:00,30.8,29.8,30.20,West,262,0.0,1.0,96,0.00,,,0.00,Wunderground v.1.15,2013-01-07 13:53:00,
2013-01-07 08:58:00,31.7,30.4,30.20,South,187,0.0,1.0,95,0.00,,,0.00,Wunderground v.1.15,2013-01-07 13:58:00,
2013-01-07 09:04:00,32.2,30.7,30.21,ESE,107,0.0,0.0,94,0.00,,,0.00,Wunderground v.1.15,2013-01-07 14:04:00,
2013-01-07 09:09:00,33.3,32.0,30.21,SW,232,0.0,2.0,95,0.00,,,0.00,Wunderground v.1.15,2013-01-07 14:09:00,
2013-01-07 09:14:00,34.1,32.3,30.21,NNE,19,0.0,1.0,93,0.00,,,0.00,Wunderground v.1.15,2013-01-07 14:14:00,
2013-01-07 09:20:00,34.7,32.6,30.22,North,359,1.0,1.0,92,0.00,,,0.00,Wunderground v.1.15,2013-01-07 14:20:00,
2013-01-07 09:25:00,35.7,33.3,30.22,West,276,1.0,2.0,91,0.00,,,0.00,Wunderground v.1.15,2013-01-07 14:25:00,
2013-01-07 09:31:00,36.9,33.7,30.22,SE,128,1.0,1.0,88,0.00,,,0.00,Wunderground v.1.15,2013-01-07 14:31:00,
2013-01-07 09:37:00,37.8,34.3,30.23,WNW,288,0.0,1.0,87,0.00,,,0.00,Wunderground v.1.15,2013-01-07 14:37:00,
2013-01-07 09:43:00,38.4,33.7,30.23,SW,218,0.0,1.0,83,0.00,,,0.00,Wunderground v.1.15,2013-01-07 14:43:00,
2013-01-07 09:49:00,38.9,33.6,30.23,North,5,1.0,4.0,81,0.00,,,0.00,Wunderground v.1.15,2013-01-07 14:49:00,
2013-01-07 09:55:00,39.4,34.1,30.24,NNW,329,1.0,3.0,81,0.00,,,0.00,Wunderground v.1.15,2013-01-07 14:55:00,
2013-01-07 10:01:00,39.7,34.0,30.24,SW,217,1.0,1.0,80,0.00,,,0.00,Wunderground v.1.15,2013-01-07 15:01:00,
2013-01-07 10:06:00,40.0,34.6,30.24,West,277,1.0,2.0,81,0.00,,,0.00,Wunderground v.1.15,2013-01-07 15:06:00,
2013-01-07 10:12:00,40.1,34.1,30.24,NNW,328,2.0,5.0,79,0.00,,,0.00,Wunderground v.1.15,2013-01-07 15:12:00,
2013-01-07 10:17:00,40.1,34.1,30.24,WSW,249,3.0,7.0,79,0.00,,,0.00,Wunderground v.1.15,2013-01-07 15:17:00,
2013-01-07 10:23:00,40.3,33.7,30.25,NE,36,4.0,5.0,77,0.00,,,0.00,Wunderground v.1.15,2013-01-07 15:23:00,
2013-01-07 10:29:00,40.5,34.2,30.25,SW,219,4.0,7.0,78,0.00,,,0.00,Wunderground v.1.15,2013-01-07 15:29:00,
2013-01-07 10:34:00,40.9,34.6,30.25,NNE,27,3.0,6.0,78,0.00,,,0.01,Wunderground v.1.15,2013-01-07 15:34:00,
2013-01-07 10:40:00,41.2,33.9,30.25,NNW,345,4.0,4.0,75,0.00,,,0.01,Wunderground v.1.15,2013-01-07 15:40:00,
2013-01-07 10:46:00,40.8,34.1,30.24,NNE,32,5.0,5.0,77,0.00,,,0.01,Wunderground v.1.15,2013-01-07 15:46:00,
2013-01-07 10:51:00,40.7,33.7,30.25,NNE,18,5.0,12.0,76,0.00,,,0.01,Wunderground v.1.15,2013-01-07 15:51:00,
2013-01-07 10:56:00,40.6,33.6,30.25,NE,36,5.0,12.0,76,0.00,,,0.01,Wunderground v.1.15,2013-01-07 15:56:00,
2013-01-07 11:02:00,40.7,33.7,30.25,NNE,15,4.0,5.0,76,0.00,,,0.01,Wunderground v.1.15,2013-01-07 16:02:00,
2013-01-07 11:08:00,40.3,33.3,30.25,NE,34,3.0,10.0,76,0.00,,,0.01,Wunderground v.1.15,2013-01-07 16:08:00,
2013-01-07 11:13:00,39.8,32.5,30.25,NE,41,5.0,6.0,75,0.00,,,0.01,Wunderground v.1.15,2013-01-07 16:13:00,
2013-01-07 11:19:00,39.8,33.2,30.25,West,280,4.0,8.0,77,0.00,,,0.01,Wunderground v.1.15,2013-01-07 16:19:00,
2013-01-07 11:25:00,40.4,32.8,30.25,SSE,149,4.0,9.0,74,0.00,,,0.01,Wunderground v.1.15,2013-01-07 16:25:00,
2013-01-07 11:31:00,40.8,33.2,30.25,NNW,335,4.0,5.0,74,0.00,,,0.01,Wunderground v.1.15,2013-01-07 16:31:00,
2013-01-07 11:36:00,40.5,32.9,30.25,NNW,341,4.0,7.0,74,0.00,,,0.01,Wunderground v.1.15,2013-01-07 16:36:00,
2013-01-07 11:42:00,40.1,32.5,30.25,NNE,19,5.0,6.0,74,0.00,,,0.01,Wunderground v.1.15,2013-01-07 16:42:00,
2013-01-07 11:47:00,39.6,32.0,30.25,ENE,65,5.0,7.0,74,0.00,,,0.01,Wunderground v.1.15,2013-01-07 16:47:00,
2013-01-07 11:53:00,40.3,32.3,30.26,NE,43,5.0,8.0,73,0.00,,,0.01,Wunderground v.1.15,2013-01-07 16:53:00,
2013-01-07 11:59:00,41.2,32.9,30.25,NNE,22,5.0,9.0,72,0.00,,,0.01,Wunderground v.1.15,2013-01-07 16:59:00,
2013-01-07 12:04:00,41.7,31.5,30.25,NE,51,5.0,8.0,67,0.00,,,0.01,Wunderground v.1.15,2013-01-07 17:04:00,
2013-01-07 12:09:00,42.0,31.8,30.25,WNW,297,4.0,8.0,67,0.00,,,0.01,Wunderground v.1.15,2013-01-07 17:09:00,
2013-01-07 12:15:00,41.8,29.7,30.25,NNE,19,5.0,8.0,62,0.00,,,0.01,Wunderground v.1.15,2013-01-07 17:15:00,
2013-01-07 12:21:00,41.7,29.2,30.26,North,359,7.0,12.0,61,0.00,,,0.01,Wunderground v.1.15,2013-01-07 17:21:00,
2013-01-07 12:27:00,42.0,31.5,30.26,NW,304,5.0,12.0,66,0.00,,,0.01,Wunderground v.1.15,2013-01-07 17:27:00,
2013-01-07 12:32:00,42.5,31.6,30.26,WNW,286,3.0,8.0,65,0.00,,,0.01,Wunderground v.1.15,2013-01-07 17:32:00,
2013-01-07 12:38:00,42.4,29.9,30.27,ENE,65,4.0,8.0,61,0.00,,,0.01,Wunderground v.1.15,2013-01-07 17:38:00,
2013-01-07 12:44:00,42.4,29.5,30.27,NNE,22,4.0,8.0,60,0.00,,,0.01,Wunderground v.1.15,2013-01-07 17:44:00,
2013-01-07 12:49:00,42.5,27.9,30.26,WNW,297,4.0,11.0,56,0.00,,,0.01,Wunderground v.1.15,2013-01-07 17:49:00,
2013-01-07 12:55:00,42.3,28.6,30.26,NNW,343,5.0,8.0,58,0.00,,,0.01,Wunderground v.1.15,2013-01-07 17:55:00,
2013-01-07 13:00:00,42.1,27.1,30.26,NE,36,6.0,8.0,55,0.00,,,0.01,Wunderground v.1.15,2013-01-07 18:00:00,
2013-01-07 13:05:00,42.0,28.7,30.27,NW,322,6.0,8.0,59,0.00,,,0.01,Wunderground v.1.15,2013-01-07 18:05:00,
2013-01-07 13:11:00,42.4,30.3,30.27,NNW,339,3.0,8.0,62,0.00,,,0.01,Wunderground v.1.15,2013-01-07 18:11:00,
2013-01-07 13:16:00,42.6,28.0,30.28,North,360,2.0,8.0,56,0.00,,,0.01,Wunderground v.1.15,2013-01-07 18:16:00,
2013-01-07 13:21:00,42.3,28.6,30.28,NE,56,4.0,8.0,58,0.00,,,0.01,Wunderground v.1.15,2013-01-07 18:21:00,
2013-01-07 13:26:00,42.5,29.2,30.28,NW,325,4.0,8.0,59,0.00,,,0.01,Wunderground v.1.15,2013-01-07 18:26:00,
2013-01-07 13:31:00,42.8,28.2,30.28,WSW,255,3.0,8.0,56,0.00,,,0.01,Wunderground v.1.15,2013-01-07 18:31:00,
2013-01-07 13:37:00,42.9,29.1,30.29,NNW,345,3.0,8.0,58,0.00,,,0.01,Wunderground v.1.15,2013-01-07 18:37:00,
2013-01-07 13:42:00,43.0,29.6,30.29,NE,56,2.0,8.0,59,0.00,,,0.01,Wunderground v.1.15,2013-01-07 18:42:00,
2013-01-07 13:48:00,43.2,27.7,30.29,NNW,331,3.0,8.0,54,0.00,,,0.01,Wunderground v.1.15,2013-01-07 18:48:00,
2013-01-07 13:54:00,43.0,27.0,30.30,North,360,3.0,8.0,53,0.00,,,0.01,Wunderground v.1.15,2013-01-07 18:54:00,
2013-01-07 14:00:00,43.3,25.9,30.30,NNE,15,3.0,3.0,50,0.00,,,0.01,Wunderground v.1.15,2013-01-07 19:00:00,
2013-01-07 14:05:00,43.1,25.2,30.30,North,11,4.0,10.0,49,0.00,,,0.01,Wunderground v.1.15,2013-01-07 19:05:00,
2013-01-07 14:10:00,42.9,25.0,30.29,West,259,4.0,8.0,49,0.00,,,0.01,Wunderground v.1.15,2013-01-07 19:10:00,
2013-01-07 14:15:00,43.0,25.6,30.30,WNW,297,4.0,8.0,50,0.00,,,0.01,Wunderground v.1.15,2013-01-07 19:15:00,
2013-01-07 14:21:00,42.9,24.5,30.30,North,5,3.0,8.0,48,0.00,,,0.01,Wunderground v.1.15,2013-01-07 19:21:00,
2013-01-07 14:26:00,42.9,25.0,30.30,NNW,330,4.0,8.0,49,0.00,,,0.01,Wunderground v.1.15,2013-01-07 19:26:00,
2013-01-07 14:32:00,43.1,24.7,30.30,West,275,2.0,8.0,48,0.00,,,0.01,Wunderground v.1.15,2013-01-07 19:32:00,
2013-01-07 14:37:00,43.3,25.4,30.31,NNE,32,1.0,8.0,49,0.00,,,0.01,Wunderground v.1.15,2013-01-07 19:37:00,
2013-01-07 14:43:00,43.3,25.9,30.30,NE,39,2.0,8.0,50,0.00,,,0.01,Wunderground v.1.15,2013-01-07 19:43:00,
2013-01-07 14:48:00,43.3,24.9,30.30,WNW,285,2.0,8.0,48,0.00,,,0.01,Wunderground v.1.15,2013-01-07 19:48:00,
2013-01-07 14:54:00,43.1,24.7,30.31,SW,218,2.0,8.0,48,0.00,,,0.01,Wunderground v.1.15,2013-01-07 19:54:00,
2013-01-07 14:59:00,43.3,23.9,30.31,WNW,298,2.0,8.0,46,0.00,,,0.01,Wunderground v.1.15,2013-01-07 19:59:00,
2013-01-07 15:04:00,43.1,24.2,30.31,SSW,197,2.0,8.0,47,0.00,,,0.01,Wunderground v.1.15,2013-01-07 20:04:00,
2013-01-07 15:10:00,43.3,23.9,30.32,NNW,340,1.0,8.0,46,0.00,,,0.01,Wunderground v.1.15,2013-01-07 20:10:00,
2013-01-07 15:15:00,42.9,24.0,30.32,West,269,1.0,8.0,47,0.00,,,0.01,Wunderground v.1.15,2013-01-07 20:15:00,
2013-01-07 15:21:00,42.4,23.6,30.33,WNW,297,3.0,3.0,47,0.00,,,0.01,Wunderground v.1.15,2013-01-07 20:21:00,
2013-01-07 15:24:00,42.4,24.6,30.32,North,1,2.0,8.0,49,0.00,,,0.01,Wunderground v.1.15,2013-01-07 20:24:00,
2013-01-07 15:29:00,42.3,23.5,30.33,NE,44,1.0,8.0,47,0.00,,,0.01,Wunderground v.1.15,2013-01-07 20:29:00,
2013-01-07 15:35:00,42.4,22.5,30.33,West,281,1.0,8.0,45,0.00,,,0.01,Wunderground v.1.15,2013-01-07 20:35:00,
2013-01-07 15:41:00,41.9,22.1,30.33,NW,311,1.0,8.0,45,0.00,,,0.01,Wunderground v.1.15,2013-01-07 20:41:00,
2013-01-07 15:46:00,41.3,22.1,30.33,NNW,348,1.0,8.0,46,0.00,,,0.01,Wunderground v.1.15,2013-01-07 20:46:00,
2013-01-07 15:51:00,40.9,22.2,30.33,North,8,1.0,8.0,47,0.00,,,0.01,Wunderground v.1.15,2013-01-07 20:51:00,
2013-01-07 15:57:00,40.7,22.0,30.33,North,350,1.0,8.0,47,0.00,,,0.01,Wunderground v.1.15,2013-01-07 20:57:00,
2013-01-07 16:02:00,40.5,23.3,30.33,WSW,250,1.0,8.0,50,0.00,,,0.01,Wunderground v.1.15,2013-01-07 21:02:00,
2013-01-07 16:08:00,39.7,21.1,30.34,NNW,336,0.0,8.0,47,0.00,,,0.01,Wunderground v.1.15,2013-01-07 21:08:00,
2013-01-07 16:13:00,38.8,21.3,30.34,NNW,335,0.0,8.0,49,0.00,,,0.01,Wunderground v.1.15,2013-01-07 21:13:00,
2013-01-07 16:19:00,37.6,20.1,30.34,North,350,0.0,8.0,49,0.00,,,0.01,Wunderground v.1.15,2013-01-07 21:19:00,
2013-01-07 16:24:00,36.8,25.4,30.35,North,349,0.0,8.0,63,0.00,,,0.01,Wunderground v.1.15,2013-01-07 21:24:00,
2013-01-07 16:29:00,35.4,24.4,30.34,NNW,348,0.0,8.0,64,0.00,,,0.01,Wunderground v.1.15,2013-01-07 21:29:00,
2013-01-07 16:34:00,34.4,24.6,30.35,North,349,0.0,8.0,67,0.00,,,0.01,Wunderground v.1.15,2013-01-07 21:34:00,
2013-01-07 16:40:00,33.6,25.2,30.35,NNW,348,0.0,8.0,71,0.00,,,0.01,Wunderground v.1.15,2013-01-07 21:40:00,
2013-01-07 16:46:00,32.7,24.7,30.35,NNW,348,0.0,8.0,72,0.00,,,0.01,Wunderground v.1.15,2013-01-07 21:46:00,
2013-01-07 16:51:00,31.8,23.8,30.35,NNW,348,0.0,8.0,72,0.00,,,0.01,Wunderground v.1.15,2013-01-07 21:51:00,
2013-01-07 16:57:00,31.2,23.5,30.36,North,349,0.0,8.0,73,0.00,,,0.01,Wunderground v.1.15,2013-01-07 21:57:00,
2013-01-07 17:03:00,30.8,24.1,30.36,North,349,0.0,8.0,76,0.00,,,0.01,Wunderground v.1.15,2013-01-07 22:03:00,
2013-01-07 17:09:00,30.3,22.7,30.37,NNW,348,0.0,8.0,73,0.00,,,0.01,Wunderground v.1.15,2013-01-07 22:09:00,
2013-01-07 17:14:00,30.3,23.6,30.37,North,349,0.0,8.0,76,0.00,,,0.01,Wunderground v.1.15,2013-01-07 22:14:00,
2013-01-07 17:20:00,30.1,24.7,30.37,North,349,0.0,8.0,80,0.00,,,0.01,Wunderground v.1.15,2013-01-07 22:20:00,
2013-01-07 17:25:00,29.7,24.0,30.37,NNW,348,0.0,8.0,79,0.00,,,0.01,Wunderground v.1.15,2013-01-07 22:25:00,
2013-01-07 17:30:00,29.7,23.4,30.37,North,349,0.0,8.0,77,0.00,,,0.01,Wunderground v.1.15,2013-01-07 22:30:00,
2013-01-07 17:36:00,29.6,22.6,30.38,NNW,348,0.0,8.0,75,0.00,,,0.01,Wunderground v.1.15,2013-01-07 22:36:00,
2013-01-07 17:41:00,29.2,22.3,30.38,NNW,348,0.0,8.0,75,0.00,,,0.01,Wunderground v.1.15,2013-01-07 22:41:00,
2013-01-07 17:46:00,28.5,21.3,30.38,North,349,0.0,8.0,74,0.00,,,0.01,Wunderground v.1.15,2013-01-07 22:46:00,
2013-01-07 17:52:00,27.8,21.2,30.39,North,349,0.0,8.0,76,0.00,,,0.01,Wunderground v.1.15,2013-01-07 22:52:00,
2013-01-07 17:57:00,27.6,21.3,30.39,North,349,0.0,8.0,77,0.00,,,0.01,Wunderground v.1.15,2013-01-07 22:57:00,
2013-01-07 18:02:00,27.6,21.3,30.39,North,349,0.0,8.0,77,0.00,,,0.01,Wunderground v.1.15,2013-01-07 23:02:00,
2013-01-07 18:07:00,27.1,20.8,30.39,North,349,0.0,8.0,77,0.00,,,0.01,Wunderground v.1.15,2013-01-07 23:07:00,
2013-01-07 18:12:00,27.0,21.1,30.39,NNW,348,0.0,8.0,78,0.00,,,0.01,Wunderground v.1.15,2013-01-07 23:12:00,
2013-01-07 18:17:00,26.6,20.7,30.39,NNW,348,0.0,8.0,78,0.00,,,0.01,Wunderground v.1.15,2013-01-07 23:17:00,
2013-01-07 18:22:00,26.5,21.2,30.39,North,349,0.0,8.0,80,0.00,,,0.01,Wunderground v.1.15,2013-01-07 23:22:00,
2013-01-07 18:28:00,26.7,21.4,30.39,North,349,0.0,8.0,80,0.00,,,0.01,Wunderground v.1.15,2013-01-07 23:28:00,
2013-01-07 18:34:00,26.8,21.5,30.39,NNW,348,0.0,8.0,80,0.00,,,0.01,Wunderground v.1.15,2013-01-07 23:34:00,
2013-01-07 18:39:00,26.6,21.3,30.39,North,349,0.0,8.0,80,0.00,,,0.01,Wunderground v.1.15,2013-01-07 23:39:00,
2013-01-07 18:45:00,26.3,21.0,30.39,North,349,0.0,8.0,80,0.00,,,0.01,Wunderground v.1.15,2013-01-07 23:45:00,
2013-01-07 18:50:00,26.1,21.1,30.39,North,349,0.0,8.0,81,0.00,,,0.01,Wunderground v.1.15,2013-01-07 23:50:00,
2013-01-07 18:55:00,25.7,21.0,30.39,North,349,0.0,8.0,82,0.00,,,0.01,Wunderground v.1.15,2013-01-07 23:55:00,
2013-01-07 19:01:00,25.7,21.3,30.39,NNW,348,0.0,8.0,83,0.00,,,0.01,Wunderground v.1.15,2013-01-08 00:01:00,
2013-01-07 19:07:00,25.7,21.3,30.40,North,349,0.0,8.0,83,0.00,,,0.01,Wunderground v.1.15,2013-01-08 00:07:00,
2013-01-07 19:12:00,25.7,21.3,30.40,North,349,0.0,8.0,83,0.00,,,0.01,Wunderground v.1.15,2013-01-08 00:12:00,
2013-01-07 19:18:00,25.7,21.0,30.40,North,349,0.0,8.0,82,0.00,,,0.01,Wunderground v.1.15,2013-01-08 00:18:00,
2013-01-07 19:23:00,25.5,20.8,30.40,North,349,0.0,8.0,82,0.00,,,0.01,Wunderground v.1.15,2013-01-08 00:23:00,
2013-01-07 19:29:00,25.2,20.5,30.40,North,349,0.0,8.0,82,0.00,,,0.01,Wunderground v.1.15,2013-01-08 00:29:00,
2013-01-07 19:35:00,24.8,20.4,30.40,NNW,348,0.0,8.0,83,0.00,,,0.01,Wunderground v.1.15,2013-01-08 00:35:00,
2013-01-07 19:41:00,24.6,20.2,30.40,NNW,348,0.0,8.0,83,0.00,,,0.01,Wunderground v.1.15,2013-01-08 00:41:00,
2013-01-07 19:46:00,24.4,20.3,30.40,NNW,348,0.0,8.0,84,0.00,,,0.01,Wunderground v.1.15,2013-01-08 00:46:00,
2013-01-07 19:51:00,24.6,20.7,30.41,NNW,348,0.0,8.0,85,0.00,,,0.01,Wunderground v.1.15,2013-01-08 00:51:00,
2013-01-07 19:57:00,24.0,20.1,30.40,North,349,0.0,8.0,85,0.00,,,0.01,Wunderground v.1.15,2013-01-08 00:57:00,
2013-01-07 20:03:00,23.6,20.0,30.40,North,349,0.0,8.0,86,0.00,,,0.01,Wunderground v.1.15,2013-01-08 01:03:00,
2013-01-07 20:09:00,23.3,19.7,30.40,North,349,0.0,8.0,86,0.00,,,0.01,Wunderground v.1.15,2013-01-08 01:09:00,
2013-01-07 20:14:00,23.0,19.7,30.39,North,349,0.0,8.0,87,0.00,,,0.01,Wunderground v.1.15,2013-01-08 01:14:00,
2013-01-07 20:20:00,22.6,19.3,30.39,North,349,0.0,8.0,87,0.00,,,0.01,Wunderground v.1.15,2013-01-08 01:20:00,
2013-01-07 20:25:00,22.5,19.5,30.39,NNW,348,0.0,8.0,88,0.00,,,0.01,Wunderground v.1.15,2013-01-08 01:25:00,
2013-01-07 20:31:00,22.4,19.4,30.39,North,349,0.0,8.0,88,0.00,,,0.01,Wunderground v.1.15,2013-01-08 01:31:00,
2013-01-07 20:36:00,22.0,19.0,30.39,North,349,0.0,8.0,88,0.00,,,0.01,Wunderground v.1.15,2013-01-08 01:36:00,
2013-01-07 20:41:00,22.1,19.1,30.39,NNW,348,0.0,8.0,88,0.00,,,0.01,Wunderground v.1.15,2013-01-08 01:41:00,
2013-01-07 20:46:00,21.9,19.2,30.39,NNW,348,0.0,8.0,89,0.00,,,0.01,Wunderground v.1.15,2013-01-08 01:46:00,
2013-01-07 20:52:00,21.9,19.2,30.39,North,349,0.0,8.0,89,0.00,,,0.01,Wunderground v.1.15,2013-01-08 01:52:00,
2013-01-07 20:57:00,21.9,19.2,30.39,NNW,348,0.0,8.0,89,0.00,,,0.01,Wunderground v.1.15,2013-01-08 01:57:00,
2013-01-07 21:03:00,21.6,18.9,30.39,North,349,0.0,8.0,89,0.00,,,0.01,Wunderground v.1.15,2013-01-08 02:03:00,
2013-01-07 21:09:00,21.2,18.5,30.39,North,349,0.0,8.0,89,0.00,,,0.01,Wunderground v.1.15,2013-01-08 02:09:00,
2013-01-07 21:14:00,21.0,18.5,30.39,NNW,348,0.0,8.0,90,0.00,,,0.01,Wunderground v.1.15,2013-01-08 02:14:00,
2013-01-07 21:20:00,20.8,18.3,30.40,North,349,0.0,8.0,90,0.00,,,0.01,Wunderground v.1.15,2013-01-08 02:20:00,
2013-01-07 21:26:00,20.2,17.7,30.40,North,349,0.0,8.0,90,0.00,,,0.01,Wunderground v.1.15,2013-01-08 02:26:00,
2013-01-07 21:32:00,20.6,18.4,30.40,North,349,0.0,8.0,91,0.00,,,0.01,Wunderground v.1.15,2013-01-08 02:32:00,
2013-01-07 21:38:00,20.8,18.6,30.40,North,349,0.0,8.0,91,0.00,,,0.01,Wunderground v.1.15,2013-01-08 02:38:00,
2013-01-07 21:43:00,20.7,18.5,30.40,North,349,0.0,8.0,91,0.00,,,0.01,Wunderground v.1.15,2013-01-08 02:43:00,
2013-01-07 21:48:00,20.4,18.2,30.40,North,349,0.0,8.0,91,0.00,,,0.01,Wunderground v.1.15,2013-01-08 02:48:00,
2013-01-07 21:53:00,20.3,18.3,30.40,North,349,0.0,8.0,92,0.00,,,0.01,Wunderground v.1.15,2013-01-08 02:53:00,
2013-01-07 21:59:00,20.1,18.1,30.39,North,349,0.0,8.0,92,0.00,,,0.01,Wunderground v.1.15,2013-01-08 02:59:00,
2013-01-07 22:05:00,20.1,18.1,30.39,North,349,0.0,8.0,92,0.00,,,0.01,Wunderground v.1.15,2013-01-08 03:05:00,
2013-01-07 22:11:00,20.4,18.4,30.39,North,349,0.0,8.0,92,0.00,,,0.01,Wunderground v.1.15,2013-01-08 03:11:00,
2013-01-07 22:16:00,20.4,18.4,30.39,North,349,0.0,8.0,92,0.00,,,0.01,Wunderground v.1.15,2013-01-08 03:16:00,
2013-01-07 22:22:00,20.2,18.2,30.39,North,349,0.0,8.0,92,0.00,,,0.01,Wunderground v.1.15,2013-01-08 03:22:00,
2013-01-07 22:27:00,19.5,17.3,30.40,NNW,348,0.0,8.0,91,0.00,,,0.01,Wunderground v.1.15,2013-01-08 03:27:00,
2013-01-07 22:32:00,19.2,17.3,30.40,NNW,348,0.0,8.0,92,0.00,,,0.01,Wunderground v.1.15,2013-01-08 03:32:00,
2013-01-07 22:38:00,19.3,17.4,30.39,NNW,348,0.0,8.0,92,0.00,,,0.01,Wunderground v.1.15,2013-01-08 03:38:00,
2013-01-07 22:44:00,19.4,17.7,30.39,North,349,0.0,8.0,93,0.00,,,0.01,Wunderground v.1.15,2013-01-08 03:44:00,
2013-01-07 22:49:00,19.5,17.8,30.39,North,349,0.0,8.0,93,0.00,,,0.01,Wunderground v.1.15,2013-01-08 03:49:00,
2013-01-07 22:55:00,19.3,17.6,30.39,North,349,0.0,8.0,93,0.00,,,0.01,Wunderground v.1.15,2013-01-08 03:55:00,
2013-01-07 23:01:00,19.0,17.3,30.39,North,349,0.0,8.0,93,0.00,,,0.01,Wunderground v.1.15,2013-01-08 04:01:00,
2013-01-07 23:06:00,18.8,17.1,30.39,North,349,0.0,8.0,93,0.00,,,0.01,Wunderground v.1.15,2013-01-08 04:06:00,
2013-01-07 23:11:00,18.6,16.9,30.39,NNW,348,0.0,0.0,93,0.00,,,0.01,Wunderground v.1.15,2013-01-08 04:11:00,
2013-01-07 23:16:00,18.4,16.7,30.38,North,349,0.0,0.0,93,0.00,,,0.01,Wunderground v.1.15,2013-01-08 04:16:00,
2013-01-07 23:22:00,18.5,16.8,30.38,North,349,0.0,0.0,93,0.00,,,0.01,Wunderground v.1.15,2013-01-08 04:22:00,
2013-01-07 23:28:00,18.6,17.2,30.38,North,349,0.0,0.0,94,0.00,,,0.01,Wunderground v.1.15,2013-01-08 04:28:00,
2013-01-07 23:33:00,18.5,16.8,30.38,North,349,0.0,0.0,93,0.00,,,0.01,Wunderground v.1.15,2013-01-08 04:33:00,
2013-01-07 23:38:00,17.9,16.2,30.38,North,349,0.0,0.0,93,0.00,,,0.01,Wunderground v.1.15,2013-01-08 04:38:00,
2013-01-07 23:44:00,17.5,15.8,30.38,North,349,0.0,0.0,93,0.00,,,0.01,Wunderground v.1.15,2013-01-08 04:44:00,
2013-01-07 23:50:00,17.4,15.7,30.38,North,349,0.0,0.0,93,0.00,,,0.01,Wunderground v.1.15,2013-01-08 04:50:00,
2013-01-07 23:56:00,17.3,15.6,30.38,North,349,0.0,0.0,93,0.00,,,0.01,Wunderground v.1.15,2013-01-08 04:56:00,